EW9119 Weather Reports


time (UTC)temp
C
wind
direction
speed
KPH
gust
KPH
rain 1hr
cm
rain 24hr
cm
rain mn
cm
humidity
%
barometer
mb
20260905004512 25 172 0.0 0.0 0.00 0.03 0.03 51 1010.6
20260905003009 25 172 0.0 0.0 0.00 0.03 0.03 54 1010.6
20260905001503 25 172 0.0 0.0 0.00 0.03 0.03 53 1011.0
20260905000105 25 172 0.0 0.0 0.00 0.03 0.03 53 1011.3
20260904234604 25 172 0.0 0.0 0.00 0.03 0.03 58 1011.7
20260904233052 25 169 0.0 4.8 0.00 0.03 0.03 58 1011.7
20260904231545 25 125 0.0 0.0 0.00 0.03 0.03 54 1011.7
20260904230041 26 161 0.0 0.0 0.00 0.03 0.03 53 1011.8
20260904224537 26 153 0.0 1.6 0.03 0.03 0.03 63 1011.7
20260904223043 27 115 0.0 0.0 0.03 0.03 0.03 63 1012.2
20260904221542 27 110 0.0 0.0 0.03 0.03 0.03 69 1011.3
20260904220024 29 163 0.0 0.0 0.03 0.03 0.03 68 1010.8
20260904214521 30 137 0.0 0.0 0.00 0.00 0.00 64 1010.6
20260904213018 30 129 0.0 0.0 0.00 0.00 0.00 61 1010.4
20260904211511 31 171 0.0 0.0 0.00 0.00 0.00 58 1010.3
20260904210007 31 134 0.0 0.0 0.00 0.00 0.00 54 1010.3
20260904204504 33 171 0.0 8.0 0.00 0.00 0.00 50 1010.0
20260904203057 36 28 0.0 0.0 0.00 0.00 0.00 46 1009.9
20260904201555 35 49 0.0 0.0 0.00 0.00 0.00 48 1009.8
20260904200109 35 123 0.0 0.0 0.00 0.00 0.00 46 1010.0
20260904194623 35 51 0.0 0.0 0.00 0.00 0.00 46 1010.4
20260904193043 35 313 0.0 0.0 0.00 0.00 0.00 47 1010.6
20260904191535 35 315 0.0 0.0 0.00 0.00 0.00 47 1011.0
20260904190030 35 317 0.0 1.6 0.00 0.00 0.00 48 1011.2
20260904184525 35 76 0.0 0.0 0.00 0.00 0.00 48 1011.3
20260904183020 35 31 0.0 0.0 0.00 0.00 0.00 45 1011.6
20260904181516 35 107 0.0 1.6 0.00 0.00 0.00 48 1011.8
20260904180012 35 300 0.0 0.0 0.00 0.00 0.00 46 1012.0
20260904174509 36 340 0.0 0.0 0.00 0.00 0.00 43 1012.2
20260904173002 36 300 0.0 0.0 0.00 0.00 0.00 45 1012.4
20260904171559 35 325 0.0 0.0 0.00 0.00 0.00 49 1012.5
20260904170054 36 32 0.0 0.0 0.00 0.00 0.00 46 1012.6
20260904164555 35 296 0.0 0.0 0.00 0.00 0.00 49 1012.7
20260904163046 35 31 0.0 0.0 0.00 0.00 0.00 47 1013.0
20260904161546 35 300 0.0 0.0 0.00 0.00 0.00 49 1013.3
20260904160040 35 221 0.0 0.0 0.00 0.00 0.00 50 1013.4
20260904154533 35 318 0.0 0.0 0.00 0.00 0.00 51 1013.4
20260904153029 34 106 0.0 0.0 0.00 0.00 0.00 51 1013.4
20260904151536 33 284 0.0 0.0 0.00 0.00 0.00 56 1013.5
20260904150020 33 311 0.0 0.0 0.00 0.00 0.00 59 1013.7
20260904144516 32 308 0.0 0.0 0.00 0.00 0.00 60 1013.6
20260904143011 32 314 0.0 0.0 0.00 0.00 0.00 63 1013.6
20260904141506 31 336 0.0 1.6 0.00 0.00 0.00 66 1013.8
20260904140002 31 294 0.0 3.2 0.00 0.00 0.00 65 1013.7
20260904134609 30 291 0.0 0.0 0.00 0.00 0.00 67 1013.8
20260904133108 29 269 0.0 0.0 0.00 0.00 0.00 67 1013.8
20260904131602 28 302 0.0 0.0 0.00 0.00 0.00 65 1014.0
20260904130045 27 298 0.0 0.0 0.00 0.00 0.00 59 1014.3
20260904124541 26 302 0.0 0.0 0.00 0.00 0.00 37 1014.2
20260904123037 25 307 0.0 0.0 0.00 0.00 0.00 12 1014.4
20260904121537 23 96 0.0 0.0 0.00 0.00 0.00 1 1014.3
20260904120032 23 96 0.0 0.0 0.00 0.00 0.00 1 1014.2
20260904114524 23 98 0.0 0.0 0.00 0.00 0.00 1 1014.1
20260904113031 23 98 0.0 0.0 0.00 0.00 0.00 1 1014.1
20260904111522 23 98 0.0 0.0 0.00 0.00 0.00 1 1013.9
20260904110010 23 98 0.0 0.0 0.00 0.00 0.00 1 1013.8
20260904104507 23 98 0.0 0.0 0.00 0.00 0.00 1 1013.6
20260904103004 23 98 0.0 0.0 0.00 0.00 0.00 1 1013.5
20260904101559 23 98 0.0 0.0 0.00 0.00 0.00 1 1013.5
20260904094549 23 98 0.0 0.0 0.00 0.00 0.00 1 1013.6
20260904093052 23 98 0.0 0.0 0.00 0.00 0.00 5 1013.5
20260904091542 23 98 0.0 0.0 0.00 0.00 0.00 3 1013.1
20260904090046 24 98 0.0 0.0 0.00 0.00 0.00 1 1013.0
20260904084535 24 98 0.0 0.0 0.00 0.00 0.00 1 1012.7
20260904083032 24 98 0.0 0.0 0.00 0.00 0.00 1 1012.7
20260904081527 24 99 0.0 0.0 0.00 0.00 0.00 1 1012.4
20260904080035 24 101 0.0 0.0 0.00 0.00 0.00 4 1012.5
20260904074529 24 101 0.0 0.0 0.00 0.00 0.00 9 1012.4
20260904073018 24 101 0.0 0.0 0.00 0.00 0.00 14 1012.6
20260904071516 24 101 0.0 0.0 0.00 0.00 0.00 19 1012.6
20260904070013 24 101 0.0 0.0 0.00 0.00 0.00 25 1012.7
20260904064510 24 101 0.0 0.0 0.00 0.00 0.00 31 1013.0
20260904063014 24 101 0.0 0.0 0.00 0.00 0.00 36 1013.2
20260904061513 24 101 0.0 0.0 0.00 0.00 0.00 39 1013.6
20260904060006 24 101 0.0 0.0 0.00 0.00 0.00 44 1013.8
20260904054600 24 101 0.0 0.0 0.00 0.00 0.00 47 1013.9
20260904053103 25 101 0.0 0.0 0.00 0.00 0.00 49 1014.0
20260904051556 25 101 0.0 0.0 0.00 0.00 0.00 57 1014.2
20260904050115 25 101 0.0 0.0 0.00 0.00 0.00 59 1014.3
20260904044558 25 101 0.0 0.0 0.00 0.00 0.00 59 1014.2
20260904043050 25 101 0.0 0.0 0.00 0.00 0.00 63 1014.0
20260904041549 25 101 0.0 0.0 0.00 0.00 0.00 66 1014.0
20260904040045 26 101 0.0 0.0 0.00 0.00 0.00 66 1014.0
20260904034547 26 101 0.0 0.0 0.00 0.00 0.00 67 1013.8
20260904033037 26 101 0.0 0.0 0.00 0.00 0.00 68 1013.8
20260904031536 26 101 0.0 0.0 0.00 0.00 0.00 68 1013.9
20260904030029 26 101 0.0 0.0 0.00 0.00 0.00 69 1013.9
20260904024523 27 101 0.0 0.0 0.00 0.00 0.00 69 1014.0
20260904023019 27 101 0.0 0.0 0.00 0.00 0.00 69 1014.0
20260904021516 27 101 0.0 0.0 0.00 0.00 0.00 69 1014.0
20260904020009 27 101 0.0 0.0 0.00 0.00 0.00 69 1013.8
20260904014505 27 101 0.0 0.0 0.00 0.00 0.00 69 1013.7
20260904013000 28 101 0.0 0.0 0.00 0.00 0.00 68 1013.5
20260904011607 28 101 0.0 0.0 0.00 0.00 0.00 67 1013.5
20260904010052 28 101 0.0 0.0 0.00 0.00 0.00 66 1013.2